EZY8376 LOWW-EDDH

Flight info

Callsign EZY8376
Flight time 1h 17m
Altitude 38000
Route LANUX DCT LALUK DCT MILGU DCT SOGMA M748 RARUP RARUP3S
Aircraft A20N/M-SDE2E3FGHIRWXY/LB1

Departure

Time 2026-04-25 15:06
Airport Vienna International Airport (LOWW)

Arrival

Time 2026-04-25 16:23
Airport Hamburg Helmut Schmidt Airport (EDDH)
Time Latitude Longitude Altitude Speed Heading
2026-04-25 14:36 48.11929 16.55635 611 ft 0 kts 25°
2026-04-25 14:58 48.11924 16.55631 608 ft 4 kts 25°
2026-04-25 14:58 48.11899 16.55614 617 ft 4 kts 20°
2026-04-25 14:58 48.11873 16.55602 614 ft 4 kts
2026-04-25 14:58 48.11848 16.55604 624 ft 4 kts 319°
2026-04-25 14:59 48.11843 16.55611 624 ft 1 kts 296°
2026-04-25 15:00 48.11848 16.55597 619 ft 5 kts 296°
2026-04-25 15:01 48.11874 16.55507 615 ft 12 kts 285°
2026-04-25 15:01 48.11826 16.55438 608 ft 12 kts 163°
2026-04-25 15:01 48.11773 16.55545 616 ft 14 kts 117°
2026-04-25 15:01 48.11724 16.55692 614 ft 17 kts 116°
2026-04-25 15:02 48.11670 16.55865 619 ft 20 kts 115°
2026-04-25 15:02 48.11607 16.56058 610 ft 22 kts 116°
2026-04-25 15:02 48.11539 16.56268 615 ft 24 kts 115°
2026-04-25 15:02 48.11464 16.56498 617 ft 26 kts 116°
2026-04-25 15:03 48.11383 16.56745 619 ft 27 kts 116°
2026-04-25 15:03 48.11296 16.57006 613 ft 29 kts 116°
2026-04-25 15:03 48.11206 16.57281 612 ft 29 kts 115°
2026-04-25 15:03 48.11147 16.57472 621 ft 14 kts 117°
2026-04-25 15:04 48.11078 16.57529 617 ft 13 kts 192°
2026-04-25 15:04 48.10992 16.57465 613 ft 15 kts 208°
2026-04-25 15:04 48.10976 16.57342 622 ft 14 kts 301°
2026-04-25 15:04 48.11038 16.57152 610 ft 39 kts 295°
2026-04-25 15:05 48.11252 16.56488 620 ft 100 kts 296°
2026-04-25 15:05 48.11631 16.55331 616 ft 145 kts 296°
2026-04-25 15:05 48.12126 16.53842 829 ft 164 kts 295°
2026-04-25 15:06 48.12426 16.50614 2120 ft 164 kts 255°
2026-04-25 15:06 48.12037 16.48981 2735 ft 167 kts 253°
2026-04-25 15:06 48.11708 16.47331 3337 ft 168 kts 264°
2026-04-25 15:06 48.11736 16.45488 3644 ft 186 kts 280°
2026-04-25 15:07 48.11943 16.43491 4031 ft 204 kts 281°
2026-04-25 15:07 48.12187 16.41279 4369 ft 229 kts 280°
2026-04-25 15:07 48.12453 16.38823 4855 ft 250 kts 281°
2026-04-25 15:07 48.12734 16.36201 5616 ft 257 kts 280°
2026-04-25 15:08 48.13014 16.33543 6540 ft 259 kts 280°
2026-04-25 15:08 48.13293 16.30871 7437 ft 262 kts 280°
2026-04-25 15:08 48.13577 16.28148 8297 ft 266 kts 280°
2026-04-25 15:08 48.13864 16.25403 9233 ft 268 kts 279°
2026-04-25 15:09 48.14241 16.22693 10052 ft 272 kts 292°
2026-04-25 15:09 48.15261 16.20262 10565 ft 288 kts 314°
2026-04-25 15:09 48.18994 16.17012 11285 ft 327 kts 333°
2026-04-25 15:10 48.21073 16.15566 12082 ft 330 kts 333°
2026-04-25 15:10 48.23164 16.14095 12856 ft 334 kts 332°
2026-04-25 15:10 48.27399 16.11016 14343 ft 341 kts 331°
2026-04-25 15:11 48.29531 16.09439 15075 ft 343 kts 331°
2026-04-25 15:11 48.31684 16.07840 15752 ft 346 kts 331°
2026-04-25 15:11 48.33857 16.06223 16443 ft 349 kts 330°
2026-04-25 15:12 48.38253 16.02945 17783 ft 356 kts 330°
2026-04-25 15:12 48.40452 16.01304 18416 ft 359 kts 330°
2026-04-25 15:12 48.42700 15.99626 18994 ft 361 kts 330°
2026-04-25 15:12 48.43459 15.99059 19199 ft 362 kts 330°
2026-04-25 15:13 48.47240 15.96232 20101 ft 368 kts 330°
2026-04-25 15:13 48.51860 15.92770 21211 ft 373 kts 329°
2026-04-25 15:13 48.54195 15.91017 21762 ft 376 kts 329°
2026-04-25 15:14 48.56546 15.89252 22307 ft 379 kts 329°
2026-04-25 15:14 48.58856 15.87324 22835 ft 380 kts 326°
2026-04-25 15:14 48.61170 15.85342 23374 ft 383 kts 326°
2026-04-25 15:14 48.63502 15.83352 23851 ft 386 kts 326°
2026-04-25 15:15 48.65846 15.81353 24322 ft 388 kts 326°
2026-04-25 15:15 48.68197 15.79342 24762 ft 390 kts 326°
2026-04-25 15:15 48.70568 15.77312 25200 ft 392 kts 326°
2026-04-25 15:15 48.72917 15.75297 25633 ft 394 kts 326°
2026-04-25 15:16 48.73724 15.74605 25780 ft 395 kts 326°
2026-04-25 15:16 48.77746 15.71147 26473 ft 399 kts 326°
2026-04-25 15:16 48.82563 15.66998 27260 ft 403 kts 326°
2026-04-25 15:17 48.87475 15.62757 28041 ft 408 kts 326°
2026-04-25 15:17 48.89949 15.60618 28382 ft 410 kts 326°
2026-04-25 15:17 48.92438 15.58460 28730 ft 412 kts 326°
2026-04-25 15:18 48.94936 15.56293 29087 ft 414 kts 326°
2026-04-25 15:18 48.99971 15.51920 29733 ft 418 kts 326°
2026-04-25 15:18 49.02501 15.49720 30068 ft 420 kts 326°
2026-04-25 15:19 49.05047 15.47503 30344 ft 422 kts 325°
2026-04-25 15:19 49.05870 15.46786 30425 ft 422 kts 325°
2026-04-25 15:19 49.10165 15.43038 30903 ft 425 kts 325°
2026-04-25 15:19 49.12729 15.40797 31213 ft 426 kts 325°
2026-04-25 15:20 49.15300 15.38548 31592 ft 425 kts 325°
2026-04-25 15:20 49.17858 15.36308 31955 ft 424 kts 325°
2026-04-25 15:20 49.20420 15.34061 32313 ft 423 kts 325°
2026-04-25 15:20 49.22935 15.31852 32666 ft 422 kts 325°
2026-04-25 15:21 49.25480 15.29614 33015 ft 421 kts 325°
2026-04-25 15:21 49.28020 15.27376 33351 ft 421 kts 325°
2026-04-25 15:21 49.30553 15.25143 33690 ft 420 kts 325°
2026-04-25 15:21 49.33078 15.22913 34020 ft 419 kts 325°
2026-04-25 15:22 49.35605 15.20678 34280 ft 418 kts 325°
2026-04-25 15:22 49.38124 15.18445 34552 ft 417 kts 325°
2026-04-25 15:22 49.40631 15.16221 34826 ft 416 kts 326°
2026-04-25 15:22 49.43138 15.13997 35072 ft 416 kts 326°
2026-04-25 15:23 49.45640 15.11775 35311 ft 415 kts 326°
2026-04-25 15:23 49.48142 15.09551 35545 ft 414 kts 326°
2026-04-25 15:23 49.50634 15.07333 35777 ft 414 kts 326°
2026-04-25 15:23 49.53129 15.05111 35978 ft 414 kts 326°
2026-04-25 15:24 49.55589 15.02916 36170 ft 414 kts 326°
2026-04-25 15:24 49.58082 15.00690 36383 ft 413 kts 326°
2026-04-25 15:24 49.60562 14.98473 36582 ft 412 kts 326°
2026-04-25 15:24 49.61401 14.97722 36640 ft 412 kts 326°
2026-04-25 15:25 49.65529 14.94024 36934 ft 412 kts 326°
2026-04-25 15:25 49.68008 14.91799 37124 ft 412 kts 326°
2026-04-25 15:25 49.70487 14.89573 37300 ft 412 kts 326°
2026-04-25 15:25 49.72959 14.87349 37450 ft 412 kts 326°
2026-04-25 15:26 49.75425 14.85128 37611 ft 411 kts 326°
2026-04-25 15:26 49.77904 14.82894 37755 ft 411 kts 326°
2026-04-25 15:26 49.80372 14.80666 37910 ft 411 kts 326°
2026-04-25 15:26 49.82850 14.78427 37976 ft 411 kts 326°
2026-04-25 15:27 49.87777 14.73966 37988 ft 409 kts 326°
2026-04-25 15:28 49.95116 14.67301 37988 ft 409 kts 326°
2026-04-25 15:28 50.00027 14.62828 37989 ft 409 kts 326°
2026-04-25 15:29 50.04941 14.58342 37994 ft 408 kts 326°
2026-04-25 15:29 50.09830 14.53868 37989 ft 407 kts 326°
2026-04-25 15:30 50.14713 14.49388 37987 ft 407 kts 326°
2026-04-25 15:30 50.19586 14.44907 37986 ft 406 kts 326°
2026-04-25 15:31 50.24456 14.40419 37983 ft 406 kts 326°
2026-04-25 15:31 50.29320 14.35925 37982 ft 406 kts 326°
2026-04-25 15:32 50.34148 14.31452 37980 ft 405 kts 326°
2026-04-25 15:32 50.39007 14.26942 37987 ft 406 kts 326°
2026-04-25 15:33 50.46259 14.20188 37989 ft 405 kts 326°
2026-04-25 15:33 50.51108 14.15660 37993 ft 405 kts 326°
2026-04-25 15:34 50.55957 14.11121 37992 ft 405 kts 326°
2026-04-25 15:34 50.59203 14.08076 37997 ft 405 kts 326°
2026-04-25 15:35 50.68054 13.99749 37992 ft 404 kts 325°
2026-04-25 15:36 50.75265 13.92938 38004 ft 404 kts 325°
2026-04-25 15:36 50.80086 13.88357 38009 ft 403 kts 324°
2026-04-25 15:37 50.84697 13.83353 37999 ft 401 kts 322°
2026-04-25 15:37 50.89293 13.78382 38000 ft 399 kts 322°
2026-04-25 15:38 50.93880 13.73391 37999 ft 399 kts 322°
2026-04-25 15:38 50.98422 13.68422 37996 ft 399 kts 322°
2026-04-25 15:39 51.02992 13.63407 37997 ft 399 kts 322°
2026-04-25 15:39 51.07565 13.58377 37998 ft 399 kts 322°
2026-04-25 15:40 51.10624 13.55006 37995 ft 400 kts 322°
2026-04-25 15:40 51.16706 13.48286 37997 ft 399 kts 322°
2026-04-25 15:41 51.21272 13.43228 37994 ft 400 kts 322°
2026-04-25 15:41 51.25833 13.38160 37997 ft 400 kts 322°
2026-04-25 15:42 51.29624 13.33940 37994 ft 399 kts 321°
2026-04-25 15:42 51.34910 13.28041 37997 ft 399 kts 321°
2026-04-25 15:43 51.39448 13.22963 37993 ft 399 kts 321°
2026-04-25 15:43 51.43232 13.18719 37991 ft 399 kts 321°
2026-04-25 15:44 51.47769 13.13620 37990 ft 399 kts 321°
2026-04-25 15:44 51.52316 13.08496 37990 ft 399 kts 321°
2026-04-25 15:45 51.56863 13.03360 37990 ft 399 kts 321°
2026-04-25 15:45 51.60703 12.99235 37992 ft 400 kts 324°
2026-04-25 15:46 51.66205 12.93666 37992 ft 400 kts 324°
2026-04-25 15:46 51.70896 12.88854 37993 ft 399 kts 324°
2026-04-25 15:47 51.75542 12.84043 37995 ft 399 kts 324°
2026-04-25 15:47 51.80212 12.79191 37989 ft 399 kts 324°
2026-04-25 15:48 51.84879 12.74330 37988 ft 399 kts 324°
2026-04-25 15:48 51.89544 12.69461 37981 ft 399 kts 324°
2026-04-25 15:49 51.94217 12.64570 37982 ft 399 kts 324°
2026-04-25 15:49 51.98848 12.59711 37989 ft 399 kts 324°
2026-04-25 15:50 52.03492 12.54826 37985 ft 399 kts 324°
2026-04-25 15:50 52.08154 12.49910 37981 ft 399 kts 324°
2026-04-25 15:51 52.12030 12.45814 37984 ft 399 kts 324°
2026-04-25 15:51 52.17476 12.40044 37987 ft 399 kts 324°
2026-04-25 15:52 52.22106 12.35124 37983 ft 399 kts 324°
2026-04-25 15:52 52.26762 12.30165 37986 ft 399 kts 324°
2026-04-25 15:53 52.31409 12.25201 37988 ft 399 kts 324°
2026-04-25 15:53 52.36014 12.20271 37990 ft 399 kts 324°
2026-04-25 15:54 52.40651 12.15294 37989 ft 398 kts 324°
2026-04-25 15:54 52.45276 12.10316 37990 ft 397 kts 324°
2026-04-25 15:55 52.49890 12.05338 37990 ft 397 kts 324°
2026-04-25 15:55 52.54496 12.00356 37993 ft 396 kts 324°
2026-04-25 15:56 52.59087 11.95378 37991 ft 395 kts 324°
2026-04-25 15:56 52.63651 11.90359 37988 ft 393 kts 322°
2026-04-25 15:57 52.67895 11.84986 37988 ft 392 kts 321°
2026-04-25 15:57 52.72231 11.79530 37986 ft 391 kts 321°
2026-04-25 15:58 52.74373 11.76825 37979 ft 390 kts 321°
2026-04-25 15:58 52.78676 11.71365 37988 ft 389 kts 321°
2026-04-25 15:59 52.82961 11.65906 37989 ft 388 kts 321°
2026-04-25 15:59 52.87233 11.60450 37995 ft 387 kts 321°
2026-04-25 16:00 52.90054 11.56839 37999 ft 387 kts 321°
2026-04-25 16:00 52.93612 11.52276 37808 ft 387 kts 321°
2026-04-25 16:00 52.95750 11.49532 37249 ft 389 kts 321°
2026-04-25 16:01 52.97894 11.46775 36414 ft 393 kts 321°
2026-04-25 16:01 53.00048 11.44003 35526 ft 397 kts 321°
2026-04-25 16:01 53.02236 11.41187 34778 ft 398 kts 321°
2026-04-25 16:01 53.04419 11.38371 34019 ft 398 kts 321°
2026-04-25 16:02 53.06578 11.35585 33184 ft 398 kts 321°
2026-04-25 16:02 53.08758 11.32782 32464 ft 396 kts 321°
2026-04-25 16:02 53.10930 11.29991 31731 ft 394 kts 321°
2026-04-25 16:02 53.13142 11.27287 30930 ft 395 kts 323°
2026-04-25 16:03 53.15409 11.24691 30257 ft 393 kts 323°
2026-04-25 16:03 53.17641 11.22124 29725 ft 386 kts 323°
2026-04-25 16:03 53.19836 11.19594 29229 ft 379 kts 323°
2026-04-25 16:03 53.21962 11.17138 28737 ft 372 kts 323°
2026-04-25 16:04 53.24072 11.14697 28245 ft 365 kts 322°
2026-04-25 16:04 53.26141 11.12300 27761 ft 359 kts 322°
2026-04-25 16:04 53.28178 11.09938 27286 ft 353 kts 322°
2026-04-25 16:04 53.30153 11.07645 26820 ft 348 kts 322°
2026-04-25 16:05 53.32132 11.05344 26349 ft 343 kts 322°
2026-04-25 16:05 53.34075 11.03083 25892 ft 338 kts 322°
2026-04-25 16:05 53.37922 10.98597 24497 ft 343 kts 322°
2026-04-25 16:06 53.39904 10.96278 23691 ft 349 kts 322°
2026-04-25 16:06 53.41889 10.93958 23104 ft 346 kts 322°
2026-04-25 16:06 53.43854 10.91661 22518 ft 342 kts 322°
2026-04-25 16:06 53.45794 10.89389 21942 ft 339 kts 322°
2026-04-25 16:07 53.47722 10.87128 21344 ft 336 kts 322°
2026-04-25 16:07 53.48986 10.85645 21082 ft 332 kts 322°
2026-04-25 16:07 53.51446 10.82758 20899 ft 313 kts 322°
2026-04-25 16:07 53.53165 10.80738 20787 ft 299 kts 321°
2026-04-25 16:08 53.54833 10.78776 20686 ft 286 kts 321°
2026-04-25 16:08 53.56442 10.76878 20385 ft 280 kts 321°
2026-04-25 16:08 53.58031 10.74997 19926 ft 279 kts 321°
2026-04-25 16:08 53.59594 10.73144 19523 ft 277 kts 321°
2026-04-25 16:09 53.60983 10.70986 19104 ft 273 kts 303°
2026-04-25 16:09 53.61670 10.67998 18645 ft 277 kts 281°
2026-04-25 16:09 53.61614 10.64717 18209 ft 282 kts 271°
2026-04-25 16:09 53.61435 10.61439 17750 ft 281 kts 271°
2026-04-25 16:10 53.61251 10.58175 17314 ft 279 kts 271°
2026-04-25 16:10 53.60991 10.54939 16839 ft 284 kts 260°
2026-04-25 16:10 53.60036 10.51983 16386 ft 300 kts 240°
2026-04-25 16:10 53.58642 10.49341 15970 ft 302 kts 236°
2026-04-25 16:11 53.57186 10.46792 15584 ft 301 kts 235°
2026-04-25 16:11 53.55735 10.44272 15211 ft 299 kts 235°
2026-04-25 16:11 53.54305 10.41755 14812 ft 297 kts 236°
2026-04-25 16:11 53.52880 10.39240 14421 ft 297 kts 232°
2026-04-25 16:12 53.51084 10.37353 14022 ft 316 kts 208°
2026-04-25 16:12 53.48933 10.36412 13597 ft 321 kts 200°
2026-04-25 16:12 53.46757 10.35699 13198 ft 320 kts 199°
2026-04-25 16:12 53.45305 10.35250 12923 ft 319 kts 199°
2026-04-25 16:13 53.42379 10.34448 12367 ft 323 kts 189°
2026-04-25 16:13 53.40121 10.34967 11919 ft 336 kts 166°
2026-04-25 16:13 53.38002 10.36535 11529 ft 334 kts 166°
2026-04-25 16:13 53.35774 10.37141 11100 ft 317 kts 191°
2026-04-25 16:14 53.33718 10.36329 10507 ft 295 kts 216°
2026-04-25 16:14 53.32183 10.34322 9931 ft 270 kts 243°
2026-04-25 16:14 53.31467 10.31651 9528 ft 240 kts 269°
2026-04-25 16:14 53.31625 10.29002 8954 ft 227 kts 295°
2026-04-25 16:15 53.32458 10.26789 8347 ft 226 kts 310°
2026-04-25 16:15 53.33587 10.24988 7799 ft 226 kts 321°
2026-04-25 16:15 53.34960 10.23696 7248 ft 228 kts 332°
2026-04-25 16:15 53.36391 10.22556 6739 ft 227 kts 329°
2026-04-25 16:16 53.37792 10.21353 6216 ft 226 kts 329°
2026-04-25 16:16 53.39179 10.20143 5712 ft 224 kts 329°
2026-04-25 16:16 53.40532 10.18967 5185 ft 223 kts 329°
2026-04-25 16:16 53.41914 10.17774 4676 ft 221 kts 329°
2026-04-25 16:17 53.43280 10.16597 4176 ft 219 kts 329°
2026-04-25 16:17 53.44625 10.15443 3754 ft 215 kts 329°
2026-04-25 16:17 53.45928 10.14320 3418 ft 208 kts 330°
2026-04-25 16:17 53.47196 10.13230 3096 ft 199 kts 330°
2026-04-25 16:18 53.48389 10.12209 2995 ft 186 kts 330°
2026-04-25 16:18 53.48776 10.11879 2988 ft 181 kts 330°
2026-04-25 16:18 53.50485 10.10422 2919 ft 153 kts 329°
2026-04-25 16:18 53.51413 10.09631 2737 ft 146 kts 329°
2026-04-25 16:19 53.52307 10.08877 2529 ft 141 kts 329°
2026-04-25 16:19 53.53167 10.08159 2305 ft 138 kts 329°
2026-04-25 16:19 53.54013 10.07460 2091 ft 134 kts 329°
2026-04-25 16:20 53.55383 10.06302 1667 ft 131 kts 327°
2026-04-25 16:20 53.56442 10.05400 1338 ft 123 kts 326°
2026-04-25 16:20 53.57989 10.03989 1078 ft 128 kts 324°
2026-04-25 16:21 53.58767 10.03272 967 ft 123 kts 326°
2026-04-25 16:21 53.59506 10.02633 874 ft 119 kts 326°
2026-04-25 16:21 53.60254 10.01986 740 ft 123 kts 327°
2026-04-25 16:21 53.61043 10.01319 582 ft 128 kts 326°
2026-04-25 16:22 53.61820 10.00649 374 ft 122 kts 326°
2026-04-25 16:22 53.62567 10.00010 157 ft 120 kts 326°
2026-04-25 16:22 53.63295 9.99372 54 ft 116 kts 327°
2026-04-25 16:22 53.63883 9.98855 49 ft 68 kts 333°
2026-04-25 16:23 53.64161 9.98625 52 ft 35 kts 333°
2026-04-25 16:23 53.64358 9.98451 53 ft 29 kts 333°
2026-04-25 16:23 53.64545 9.98369 56 ft 27 kts 359°
2026-04-25 16:23 53.64684 9.98400 54 ft 15 kts 29°
2026-04-25 16:24 53.64654 9.98540 52 ft 17 kts 150°
2026-04-25 16:24 53.64541 9.98642 51 ft 20 kts 152°
2026-04-25 16:24 53.64407 9.98755 50 ft 23 kts 153°
2026-04-25 16:24 53.64256 9.98885 49 ft 26 kts 153°
2026-04-25 16:25 53.64084 9.99031 48 ft 29 kts 154°
2026-04-25 16:25 53.64026 9.99081 48 ft 29 kts 151°
2026-04-25 16:25 53.63746 9.99385 47 ft 28 kts 129°
2026-04-25 16:25 53.63632 9.99652 49 ft 29 kts 127°
2026-04-25 16:26 53.63518 9.99920 50 ft 23 kts 127°
2026-04-25 16:26 53.63440 10.00045 48 ft 12 kts 179°
2026-04-25 16:26 53.63372 9.99952 48 ft 14 kts 229°
2026-04-25 16:26 53.63307 9.99820 48 ft 15 kts 231°
2026-04-25 16:27 53.63230 9.99685 48 ft 16 kts 226°
2026-04-25 16:27 53.63157 9.99525 46 ft 18 kts 235°
2026-04-25 16:27 53.63082 9.99359 46 ft 15 kts 234°
2026-04-25 16:27 53.63006 9.99318 46 ft 13 kts 157°
2026-04-25 16:28 53.62913 9.99396 46 ft 16 kts 151°
2026-04-25 16:28 53.62837 9.99458 46 ft 4 kts 184°
2026-04-25 16:28 53.62815 9.99418 46 ft 5 kts 241°
2026-04-25 16:28 53.62801 9.99369 46 ft 5 kts 243°
2026-04-25 16:29 53.62796 9.99352 46 ft 0 kts 242°